Orbital Elements at Epoch 2459200.5 (2020-Dec-17.0) TDB
Reference: JPL 24 (heliocentric ecliptic J2000)
Element | Value | Uncertainty (1-sigma) | Units |
e | .1334740286509234 | 4.7725e-08 | |
a | 2.664554593626206 | 1.3085e-08 | au |
q | 2.308905757454592 | 1.2545e-07 | au |
i | 12.11733251985551 | 4.8638e-06 | deg |
node | 73.67676117050114 | 2.0817e-05 | deg |
peri | 306.7955165044879 | 2.6885e-05 | deg |
M | 113.313846627252 | 1.578e-05 | deg |
tp | 2458700.447223461978 (2019-Aug-04.94722346) | 6.9304e-05 | TDB |
period | 1588.676096628014 4.35 | 1.1702e-05 3.204e-08 | d yr |
n | .226603774529059 | 1.6691e-09 | deg/d |
Q | 3.02020342979782 | 1.4831e-08 | au |
|
| | Orbit Determination Parameters
Additional Information
|